sat.trackr.live / text

‹ back to catalog

HULIANWANG DIGUI-167

NORAD 68659 · 2026-076D

PAYLOAD ACTIVE UNKNOWN

§ Identity

Operator
Country
PRC
Launch date
2026-04-08
Launch site
TAISC
Launch vehicle
Mass (kg)
RCS (m²)

External: N2YO · Heavens-Above · Gunter

§ Orbital elements

Epoch: 2026-09-20T05:15:43.005600Z

Period
108.73 min
Inclination
86.5048°
Eccentricity
0.0001365
Mean motion
13.24410494 rev/d
Perigee alt
1,166.9 km
Apogee alt
1,169.0 km
Semi-major
7,546.1 km
B*
3.2649e-6
RAAN
11.8058°
Arg perigee
113.4469°
Mean anomaly
246.6809°
Rev number
2,195

§ Raw data

HULIANWANG DIGUI-1671 68659U 26076D   26263.21924775  .00000016  00000+0  32649-5 0  99962 68659  86.5048  11.8058 0001365 113.4469 246.6809 13.24410494 21957

JSON: /api/v1/satellites/68659 · /tle

For live sub-satellite position, see the globe view (requires WebGL).

§ Visibility from observer

Set your observer location to see the next 7 days of passes ≥ 10°. The values pass through the URL so the page stays shareable.

No JS? Fill the form by hand. The geolocation button needs JavaScript.